contact:dominique.lefevre@mio.osupytheas.fr, maurice.libes@osupytheas.fr, didier.mallarino@osupytheas.fr
Project:EMSO http://www.emso-fr.org/EMSO-France
Depth: 2436.0 m
Title:EMSO Ligure Ouest : Data MII capteur MICROCAT
DateTime_Computer,Latitude,Longitude,Temperature,Conductivity,Pressure,DateTime_Instrument
DateTime_Computer,Latitude,Longitude,degC,S m-1,dbar,DateTime_Instrument
2020-02-01T00:01:49Z,42.805,6.029,13.2955,4.59961,2470.017,2020-2-01T02:02:23Z
2020-02-01T00:04:52Z,42.805,6.029,13.2959,4.59962,2469.993,2020-2-01T02:05:26Z
2020-02-01T00:07:56Z,42.805,6.029,13.2959,4.59961,2469.993,2020-2-01T02:08:29Z
2020-02-01T00:10:59Z,42.805,6.029,13.2963,4.59960,2470.003,2020-2-01T02:11:33Z
2020-02-01T00:14:02Z,42.805,6.029,13.2958,4.59961,2469.993,2020-2-01T02:14:36Z
2020-02-01T00:17:05Z,42.805,6.029,13.2960,4.59961,2470.04,2020-2-01T02:17:39Z
2020-02-01T00:20:08Z,42.805,6.029,13.2960,4.59961,2470.017,2020-2-01T02:20:42Z
2020-02-01T00:23:12Z,42.805,6.029,13.2961,4.59961,2470.03,2020-2-01T02:23:45Z
2020-02-01T00:26:15Z,42.805,6.029,13.2958,4.59961,2469.984,2020-2-01T02:26:49Z
2020-02-01T00:29:18Z,42.805,6.029,13.2961,4.59961,2470.03,2020-2-01T02:29:52Z
2020-02-01T00:32:22Z,42.805,6.029,13.2961,4.59963,2469.97,2020-2-01T02:32:55Z
2020-02-01T00:35:25Z,42.805,6.029,13.2957,4.59962,2469.947,2020-2-01T02:35:59Z
2020-02-01T00:38:28Z,42.805,6.029,13.2957,4.59961,2470.017,2020-2-01T02:39:02Z
2020-02-01T00:41:31Z,42.805,6.029,13.2959,4.59962,2469.984,2020-2-01T02:42:05Z
2020-02-01T00:44:35Z,42.805,6.029,13.2957,4.59961,2469.97,2020-2-01T02:45:08Z
2020-02-01T00:47:38Z,42.805,6.029,13.2958,4.59961,2469.993,2020-2-01T02:48:12Z
2020-02-01T00:50:41Z,42.805,6.029,13.2960,4.59960,2469.984,2020-2-01T02:51:15Z
2020-02-01T00:53:44Z,42.805,6.029,13.2961,4.59961,2469.993,2020-2-01T02:54:18Z
2020-02-01T00:56:47Z,42.805,6.029,13.2958,4.59960,2469.97,2020-2-01T02:57:21Z
2020-02-01T00:59:50Z,42.805,6.029,13.2960,4.59961,2469.97,2020-2-01T03:00:24Z
2020-02-01T01:02:54Z,42.805,6.029,13.2959,4.59963,2469.984,2020-2-01T03:03:27Z
2020-02-01T01:05:57Z,42.805,6.029,13.2959,4.59961,2469.993,2020-2-01T03:06:31Z
2020-02-01T01:09:00Z,42.805,6.029,13.2959,4.59960,2469.97,2020-2-01T03:09:34Z
2020-02-01T01:12:03Z,42.805,6.029,13.2959,4.59959,2469.97,2020-2-01T03:12:37Z
2020-02-01T01:15:07Z,42.805,6.029,13.2962,4.59961,2469.993,2020-2-01T03:15:40Z
2020-02-01T01:18:10Z,42.805,6.029,13.2961,4.59961,2469.984,2020-2-01T03:18:44Z
2020-02-01T01:21:13Z,42.805,6.029,13.2955,4.59961,2469.993,2020-2-01T03:21:47Z
2020-02-01T01:24:16Z,42.805,6.029,13.2958,4.59961,2469.947,2020-2-01T03:24:50Z
2020-02-01T01:27:19Z,42.805,6.029,13.2962,4.59960,2469.984,2020-2-01T03:27:53Z
2020-02-01T01:30:23Z,42.805,6.029,13.2960,4.59961,2469.993,2020-2-01T03:30:56Z
2020-02-01T01:33:26Z,42.805,6.029,13.2962,4.59961,2469.97,2020-2-01T03:34:00Z
2020-02-01T01:36:29Z,42.805,6.029,13.2958,4.59961,2469.96,2020-2-01T03:37:03Z
2020-02-01T01:39:32Z,42.805,6.029,13.2961,4.59962,2469.993,2020-2-01T03:40:06Z
2020-02-01T01:42:35Z,42.805,6.029,13.2961,4.59961,2470.017,2020-2-01T03:43:09Z
2020-02-01T01:45:38Z,42.805,6.029,13.2963,4.59960,2470.007,2020-2-01T03:46:12Z
2020-02-01T01:48:42Z,42.805,6.029,13.2960,4.59961,2469.97,2020-2-01T03:49:15Z
2020-02-01T01:51:45Z,42.805,6.029,13.2956,4.59961,2469.96,2020-2-01T03:52:19Z
2020-02-01T01:54:48Z,42.805,6.029,13.2954,4.59960,2469.97,2020-2-01T03:55:22Z
2020-02-01T01:57:51Z,42.805,6.029,13.2960,4.59961,2469.979,2020-2-01T03:58:25Z
2020-02-01T02:00:54Z,42.805,6.029,13.2963,4.59960,2469.947,2020-2-01T04:01:28Z
2020-02-01T02:03:58Z,42.805,6.029,13.2962,4.59961,2469.97,2020-2-01T04:04:31Z
2020-02-01T02:07:01Z,42.805,6.029,13.2960,4.59961,2469.984,2020-2-01T04:07:35Z
2020-02-01T02:10:04Z,42.805,6.029,13.2960,4.59961,2469.97,2020-2-01T04:10:38Z
2020-02-01T02:13:07Z,42.805,6.029,13.2960,4.59960,2469.97,2020-2-01T04:13:41Z
2020-02-01T02:16:11Z,42.805,6.029,13.2959,4.59961,2469.993,2020-2-01T04:16:44Z
2020-02-01T02:19:14Z,42.805,6.029,13.2963,4.59962,2469.97,2020-2-01T04:19:47Z
2020-02-01T02:22:17Z,42.805,6.029,13.2959,4.59961,2469.97,2020-2-01T04:22:51Z
2020-02-01T02:25:20Z,42.805,6.029,13.2957,4.59961,2469.984,2020-2-01T04:25:54Z
2020-02-01T02:28:23Z,42.805,6.029,13.2958,4.59960,2469.984,2020-2-01T04:28:57Z
2020-02-01T02:31:27Z,42.805,6.029,13.2956,4.59960,2469.947,2020-2-01T04:32:00Z
2020-02-01T02:34:30Z,42.805,6.029,13.2958,4.59960,2469.96,2020-2-01T04:35:04Z
2020-02-01T02:37:33Z,42.805,6.029,13.2959,4.59960,2469.97,2020-2-01T04:38:07Z
2020-02-01T02:40:36Z,42.805,6.029,13.2956,4.59960,2469.947,2020-2-01T04:41:10Z
2020-02-01T02:43:39Z,42.805,6.029,13.2963,4.59961,2469.97,2020-2-01T04:44:13Z
2020-02-01T02:46:43Z,42.805,6.029,13.2957,4.59961,2469.96,2020-2-01T04:47:16Z
2020-02-01T02:49:46Z,42.805,6.029,13.2961,4.59961,2469.984,2020-2-01T04:50:20Z
2020-02-01T02:52:49Z,42.805,6.029,13.2961,4.59959,2469.947,2020-2-01T04:53:23Z
2020-02-01T02:55:52Z,42.805,6.029,13.2961,4.59961,2469.947,2020-2-01T04:56:26Z
2020-02-01T02:58:55Z,42.805,6.029,13.2960,4.59961,2469.923,2020-2-01T04:59:29Z
2020-02-01T03:01:59Z,42.805,6.029,13.2961,4.59960,2469.947,2020-2-01T05:02:32Z
2020-02-01T03:05:02Z,42.805,6.029,13.2960,4.59958,2469.984,2020-2-01T05:05:36Z
2020-02-01T03:08:05Z,42.805,6.029,13.2961,4.59960,2469.97,2020-2-01T05:08:39Z
2020-02-01T03:11:08Z,42.805,6.029,13.2958,4.59960,2469.9,2020-2-01T05:11:42Z
2020-02-01T03:14:11Z,42.805,6.029,13.2961,4.59961,2469.947,2020-2-01T05:14:45Z
2020-02-01T03:17:15Z,42.805,6.029,13.2960,4.59960,2469.923,2020-2-01T05:17:48Z
2020-02-01T03:20:18Z,42.805,6.029,13.2960,4.59960,2469.937,2020-2-01T05:20:52Z
2020-02-01T03:23:21Z,42.805,6.029,13.2961,4.59959,2469.947,2020-2-01T05:23:55Z
2020-02-01T03:26:24Z,42.805,6.029,13.2958,4.59961,2469.947,2020-2-01T05:26:58Z
2020-02-01T03:29:27Z,42.805,6.029,13.2958,4.59960,2469.993,2020-2-01T05:30:01Z
2020-02-01T03:32:30Z,42.805,6.029,13.2962,4.59960,2469.9,2020-2-01T05:33:04Z
2020-02-01T03:35:34Z,42.805,6.029,13.2957,4.59960,2469.923,2020-2-01T05:36:07Z
2020-02-01T03:38:37Z,42.805,6.029,13.2958,4.59960,2469.984,2020-2-01T05:39:11Z
2020-02-01T03:41:40Z,42.805,6.029,13.2960,4.59960,2469.947,2020-2-01T05:42:14Z
2020-02-01T03:44:43Z,42.805,6.029,13.2961,4.59960,2469.947,2020-2-01T05:45:17Z
2020-02-01T03:47:46Z,42.805,6.029,13.2958,4.59961,2469.947,2020-2-01T05:48:20Z
2020-02-01T03:50:50Z,42.805,6.029,13.2957,4.59958,2469.96,2020-2-01T05:51:23Z
2020-02-01T03:53:53Z,42.805,6.029,13.2955,4.59961,2469.947,2020-2-01T05:54:27Z
2020-02-01T03:56:56Z,42.805,6.029,13.2961,4.59958,2469.97,2020-2-01T05:57:30Z
2020-02-01T03:59:59Z,42.805,6.029,13.2957,4.59961,2469.947,2020-2-01T06:00:33Z
2020-02-01T04:03:02Z,42.805,6.029,13.2960,4.59961,2469.937,2020-2-01T06:03:36Z
2020-02-01T04:06:05Z,42.805,6.029,13.2964,4.59961,2469.933,2020-2-01T06:06:39Z
2020-02-01T04:09:09Z,42.805,6.029,13.2958,4.59961,2469.96,2020-2-01T06:09:43Z
2020-02-01T04:12:12Z,42.805,6.029,13.2958,4.59961,2469.984,2020-2-01T06:12:46Z
2020-02-01T04:15:15Z,42.805,6.029,13.2957,4.59961,2469.923,2020-2-01T06:15:49Z
2020-02-01T04:18:18Z,42.805,6.029,13.2958,4.59960,2469.96,2020-2-01T06:18:52Z
2020-02-01T04:21:22Z,42.805,6.029,13.2963,4.59960,2469.97,2020-2-01T06:21:55Z
2020-02-01T04:24:25Z,42.805,6.029,13.2959,4.59961,2469.947,2020-2-01T06:24:58Z
2020-02-01T04:27:28Z,42.805,6.029,13.2958,4.59958,2469.923,2020-2-01T06:28:02Z
2020-02-01T04:30:31Z,42.805,6.029,13.2961,4.59959,2469.947,2020-2-01T06:31:05Z
2020-02-01T04:33:34Z,42.805,6.029,13.2953,4.59961,2469.947,2020-2-01T06:34:08Z
2020-02-01T04:36:38Z,42.805,6.029,13.2960,4.59960,2469.937,2020-2-01T06:37:11Z
2020-02-01T04:39:41Z,42.805,6.029,13.2958,4.59958,2469.923,2020-2-01T06:40:15Z
2020-02-01T04:42:44Z,42.805,6.029,13.2958,4.59960,2469.96,2020-2-01T06:43:18Z
2020-02-01T04:45:47Z,42.805,6.029,13.2957,4.59959,2469.914,2020-2-01T06:46:21Z
2020-02-01T04:48:50Z,42.805,6.029,13.2958,4.59960,2469.914,2020-2-01T06:49:24Z
2020-02-01T04:51:53Z,42.805,6.029,13.2961,4.59960,2469.937,2020-2-01T06:52:27Z
2020-02-01T04:54:57Z,42.805,6.029,13.2964,4.59961,2469.923,2020-2-01T06:55:30Z
2020-02-01T04:58:00Z,42.805,6.029,13.2958,4.59961,2469.937,2020-2-01T06:58:34Z
2020-02-01T05:01:03Z,42.805,6.029,13.2959,4.59960,2469.947,2020-2-01T07:01:37Z
2020-02-01T05:04:06Z,42.805,6.029,13.2958,4.59961,2469.923,2020-2-01T07:04:40Z
2020-02-01T05:07:09Z,42.805,6.029,13.2961,4.59960,2469.9,2020-2-01T07:07:43Z
2020-02-01T05:10:13Z,42.805,6.029,13.2961,4.59960,2469.9,2020-2-01T07:10:46Z
2020-02-01T05:13:16Z,42.805,6.029,13.2960,4.59960,2469.96,2020-2-01T07:13:50Z
2020-02-01T05:16:19Z,42.805,6.029,13.2962,4.59960,2469.9,2020-2-01T07:16:53Z
2020-02-01T05:19:22Z,42.805,6.029,13.2960,4.59960,2469.937,2020-2-01T07:19:56Z
2020-02-01T05:22:25Z,42.805,6.029,13.2957,4.59960,2469.914,2020-2-01T07:22:59Z
2020-02-01T05:25:29Z,42.805,6.029,13.2960,4.59960,2469.9,2020-2-01T07:26:02Z
2020-02-01T05:28:32Z,42.805,6.029,13.2961,4.59960,2469.876,2020-2-01T07:29:06Z
2020-02-01T05:31:35Z,42.805,6.029,13.2958,4.59961,2469.937,2020-2-01T07:32:09Z
2020-02-01T05:34:38Z,42.805,6.029,13.2959,4.59960,2469.876,2020-2-01T07:35:12Z
2020-02-01T05:37:41Z,42.805,6.029,13.2953,4.59960,2469.937,2020-2-01T07:38:15Z
2020-02-01T05:40:45Z,42.805,6.029,13.2957,4.59958,2469.9,2020-2-01T07:41:19Z
2020-02-01T05:43:48Z,42.805,6.029,13.2958,4.59958,2469.947,2020-2-01T07:44:22Z
2020-02-01T05:46:51Z,42.805,6.029,13.2958,4.59959,2469.909,2020-2-01T07:47:25Z
2020-02-01T05:49:54Z,42.805,6.029,13.2957,4.59958,2469.937,2020-2-01T07:50:28Z
2020-02-01T05:52:58Z,42.805,6.029,13.2958,4.59960,2469.923,2020-2-01T07:53:31Z
2020-02-01T05:56:01Z,42.805,6.029,13.2961,4.59961,2469.923,2020-2-01T07:56:35Z
2020-02-01T05:59:04Z,42.805,6.029,13.2960,4.59960,2469.937,2020-2-01T07:59:38Z
2020-02-01T06:02:07Z,42.805,6.029,13.2961,4.59960,2469.947,2020-2-01T08:02:41Z
2020-02-01T06:05:11Z,42.805,6.029,13.2959,4.59960,2469.9,2020-2-01T08:05:44Z
2020-02-01T06:08:14Z,42.805,6.029,13.2958,4.59961,2469.9,2020-2-01T08:08:48Z
2020-02-01T06:11:17Z,42.805,6.029,13.2958,4.59961,2469.947,2020-2-01T08:11:51Z
2020-02-01T06:14:20Z,42.805,6.029,13.2957,4.59960,2469.937,2020-2-01T08:14:54Z
2020-02-01T06:17:23Z,42.805,6.029,13.2961,4.59961,2469.96,2020-2-01T08:17:57Z
2020-02-01T06:20:27Z,42.805,6.029,13.2961,4.59960,2469.923,2020-2-01T08:21:00Z
2020-02-01T06:23:30Z,42.805,6.029,13.2958,4.59960,2469.96,2020-2-01T08:24:04Z
2020-02-01T06:26:33Z,42.805,6.029,13.2961,4.59961,2469.947,2020-2-01T08:27:07Z
2020-02-01T06:29:36Z,42.805,6.029,13.2960,4.59961,2469.937,2020-2-01T08:30:10Z
2020-02-01T06:32:39Z,42.805,6.029,13.2962,4.59962,2469.947,2020-2-01T08:33:13Z
2020-02-01T06:35:43Z,42.805,6.029,13.2962,4.59960,2469.937,2020-2-01T08:36:17Z
2020-02-01T06:38:46Z,42.805,6.029,13.2960,4.59962,2469.947,2020-2-01T08:39:20Z
2020-02-01T06:41:49Z,42.805,6.029,13.2958,4.59960,2469.947,2020-2-01T08:42:23Z
2020-02-01T06:44:52Z,42.805,6.029,13.2961,4.59959,2469.96,2020-2-01T08:45:26Z
2020-02-01T06:47:55Z,42.805,6.029,13.2960,4.59960,2469.96,2020-2-01T08:48:29Z
2020-02-01T06:50:59Z,42.805,6.029,13.2960,4.59961,2469.947,2020-2-01T08:51:32Z
2020-02-01T06:54:02Z,42.805,6.029,13.2959,4.59960,2469.956,2020-2-01T08:54:36Z
2020-02-01T06:57:05Z,42.805,6.029,13.2959,4.59960,2469.97,2020-2-01T08:57:39Z
2020-02-01T07:00:08Z,42.805,6.029,13.2962,4.59959,2469.923,2020-2-01T09:00:42Z
2020-02-01T07:03:12Z,42.805,6.029,13.2958,4.59960,2469.947,2020-2-01T09:03:45Z
2020-02-01T07:06:15Z,42.805,6.029,13.2960,4.59960,2469.96,2020-2-01T09:06:49Z
2020-02-01T07:09:18Z,42.805,6.029,13.2961,4.59961,2469.947,2020-2-01T09:09:52Z
2020-02-01T07:12:21Z,42.805,6.029,13.2958,4.59961,2469.96,2020-2-01T09:12:55Z
2020-02-01T07:15:24Z,42.805,6.029,13.2958,4.59960,2469.923,2020-2-01T09:15:58Z
2020-02-01T07:18:28Z,42.805,6.029,13.2957,4.59960,2469.937,2020-2-01T09:19:01Z
2020-02-01T07:21:31Z,42.805,6.029,13.2962,4.59960,2469.96,2020-2-01T09:22:04Z
2020-02-01T07:24:34Z,42.805,6.029,13.2960,4.59959,2469.947,2020-2-01T09:25:08Z
2020-02-01T07:27:37Z,42.805,6.029,13.2960,4.59961,2469.96,2020-2-01T09:28:11Z
2020-02-01T07:30:41Z,42.805,6.029,13.2961,4.59960,2469.97,2020-2-01T09:31:15Z
2020-02-01T07:33:44Z,42.805,6.029,13.2960,4.59959,2469.947,2020-2-01T09:34:18Z
2020-02-01T07:36:47Z,42.805,6.029,13.2962,4.59958,2469.96,2020-2-01T09:37:21Z
2020-02-01T07:39:51Z,42.805,6.029,13.2961,4.59959,2469.947,2020-2-01T09:40:24Z
2020-02-01T07:42:54Z,42.805,6.029,13.2959,4.59961,2469.984,2020-2-01T09:43:28Z
2020-02-01T07:45:57Z,42.805,6.029,13.2961,4.59959,2469.984,2020-2-01T09:46:31Z
2020-02-01T07:49:00Z,42.805,6.029,13.2961,4.59960,2470.007,2020-2-01T09:49:34Z
2020-02-01T07:52:03Z,42.805,6.029,13.2963,4.59960,2469.96,2020-2-01T09:52:37Z
2020-02-01T07:55:07Z,42.805,6.029,13.2954,4.59961,2469.984,2020-2-01T09:55:40Z
2020-02-01T07:58:10Z,42.805,6.029,13.2959,4.59960,2469.993,2020-2-01T09:58:44Z
2020-02-01T08:01:13Z,42.805,6.029,13.2958,4.59960,2470.007,2020-2-01T10:01:47Z
2020-02-01T08:04:16Z,42.805,6.029,13.2958,4.59961,2469.97,2020-2-01T10:04:50Z
2020-02-01T08:07:19Z,42.805,6.029,13.2957,4.59959,2469.984,2020-2-01T10:07:53Z
2020-02-01T08:10:23Z,42.805,6.029,13.2961,4.59961,2469.947,2020-2-01T10:10:56Z
2020-02-01T08:13:26Z,42.805,6.029,13.2961,4.59961,2469.993,2020-2-01T10:14:00Z
2020-02-01T08:16:29Z,42.805,6.029,13.2964,4.59961,2469.984,2020-2-01T10:17:03Z
2020-02-01T08:19:32Z,42.805,6.029,13.2962,4.59961,2469.97,2020-2-01T10:20:06Z
2020-02-01T08:22:35Z,42.805,6.029,13.2958,4.59961,2469.947,2020-2-01T10:23:09Z
2020-02-01T08:25:39Z,42.805,6.029,13.2957,4.59961,2469.984,2020-2-01T10:26:12Z
2020-02-01T08:28:42Z,42.805,6.029,13.2957,4.59960,2469.984,2020-2-01T10:29:16Z
2020-02-01T08:31:45Z,42.805,6.029,13.2961,4.59961,2469.97,2020-2-01T10:32:19Z
2020-02-01T08:34:48Z,42.805,6.029,13.2957,4.59961,2470.007,2020-2-01T10:35:22Z
2020-02-01T08:37:51Z,42.805,6.029,13.2961,4.59961,2469.97,2020-2-01T10:38:25Z
2020-02-01T08:40:55Z,42.805,6.029,13.2959,4.59961,2470.007,2020-2-01T10:41:28Z
2020-02-01T08:43:58Z,42.805,6.029,13.2959,4.59960,2469.984,2020-2-01T10:44:32Z
2020-02-01T08:47:01Z,42.805,6.029,13.2959,4.59960,2470.007,2020-2-01T10:47:35Z
2020-02-01T08:50:04Z,42.805,6.029,13.2962,4.59960,2470.03,2020-2-01T10:50:38Z
2020-02-01T08:53:07Z,42.805,6.029,13.2954,4.59961,2470.017,2020-2-01T10:53:41Z
2020-02-01T08:56:11Z,42.805,6.029,13.2963,4.59959,2469.97,2020-2-01T10:56:45Z
2020-02-01T08:59:14Z,42.805,6.029,13.2961,4.59960,2470.007,2020-2-01T10:59:48Z
2020-02-01T09:02:18Z,42.805,6.029,13.2960,4.59960,2470.03,2020-2-01T11:02:51Z
2020-02-01T09:05:21Z,42.805,6.029,13.2957,4.59961,2469.993,2020-2-01T11:05:55Z
2020-02-01T09:08:24Z,42.805,6.029,13.2959,4.59960,2470.053,2020-2-01T11:08:58Z
2020-02-01T09:11:27Z,42.805,6.029,13.2959,4.59960,2470.03,2020-2-01T11:12:01Z
2020-02-01T09:14:30Z,42.805,6.029,13.2957,4.59960,2470.017,2020-2-01T11:15:04Z
2020-02-01T09:17:34Z,42.805,6.029,13.2961,4.59960,2470.017,2020-2-01T11:18:07Z
2020-02-01T09:20:37Z,42.805,6.029,13.2958,4.59960,2470.017,2020-2-01T11:21:11Z
2020-02-01T09:23:40Z,42.805,6.029,13.2958,4.59961,2470.053,2020-2-01T11:24:14Z
2020-02-01T09:26:43Z,42.805,6.029,13.2957,4.59960,2470.03,2020-2-01T11:27:17Z
2020-02-01T09:29:46Z,42.805,6.029,13.2957,4.59960,2470.03,2020-2-01T11:30:20Z
2020-02-01T09:32:50Z,42.805,6.029,13.2958,4.59959,2469.993,2020-2-01T11:33:23Z
2020-02-01T09:35:53Z,42.805,6.029,13.2961,4.59961,2470.017,2020-2-01T11:36:27Z
2020-02-01T09:38:56Z,42.805,6.029,13.2958,4.59960,2469.993,2020-2-01T11:39:30Z
2020-02-01T09:41:59Z,42.805,6.029,13.2961,4.59959,2470.017,2020-2-01T11:42:33Z
2020-02-01T10:08:08Z,42.805,6.029,13.2957,4.59961,2470.04,2020-2-01T12:08:42Z
2020-02-01T10:11:11Z,42.805,6.029,13.2958,4.59960,2470.077,2020-2-01T12:11:45Z
2020-02-01T10:14:15Z,42.805,6.029,13.2959,4.59960,2470.1,2020-2-01T12:14:48Z
2020-02-01T10:17:18Z,42.805,6.029,13.2960,4.59961,2470.063,2020-2-01T12:17:52Z
2020-02-01T10:20:21Z,42.805,6.029,13.2961,4.59960,2470.077,2020-2-01T12:20:55Z
2020-02-01T10:23:24Z,42.805,6.029,13.2960,4.59961,2470.077,2020-2-01T12:23:58Z
2020-02-01T10:26:27Z,42.805,6.029,13.2958,4.59961,2470.063,2020-2-01T12:27:01Z
2020-02-01T10:29:31Z,42.805,6.029,13.2963,4.59961,2470.017,2020-2-01T12:30:04Z
2020-02-01T10:32:34Z,42.805,6.029,13.2957,4.59961,2470.063,2020-2-01T12:33:08Z
2020-02-01T10:35:37Z,42.805,6.029,13.2957,4.59960,2470.087,2020-2-01T12:36:11Z
2020-02-01T10:38:40Z,42.805,6.029,13.2958,4.59961,2470.04,2020-2-01T12:39:14Z
2020-02-01T10:41:43Z,42.805,6.029,13.2958,4.59961,2470.077,2020-2-01T12:42:17Z
2020-02-01T10:44:47Z,42.805,6.029,13.2963,4.59960,2470.053,2020-2-01T12:45:20Z
2020-02-01T10:47:50Z,42.805,6.029,13.2961,4.59961,2470.087,2020-2-01T12:48:24Z
2020-02-01T10:50:53Z,42.805,6.029,13.2961,4.59961,2470.077,2020-2-01T12:51:27Z
2020-02-01T10:53:56Z,42.805,6.029,13.2961,4.59960,2470.11,2020-2-01T12:54:30Z
2020-02-01T10:57:00Z,42.805,6.029,13.2959,4.59960,2470.04,2020-2-01T12:57:34Z
2020-02-01T11:00:03Z,42.805,6.029,13.2958,4.59961,2470.077,2020-2-01T13:00:37Z
2020-02-01T11:03:06Z,42.805,6.029,13.2957,4.59961,2470.1,2020-2-01T13:03:40Z
2020-02-01T11:06:09Z,42.805,6.029,13.2958,4.59960,2470.087,2020-2-01T13:06:43Z
2020-02-01T11:09:13Z,42.805,6.029,13.2961,4.59962,2470.063,2020-2-01T13:09:46Z
2020-02-01T11:12:16Z,42.805,6.029,13.2959,4.59961,2470.063,2020-2-01T13:12:50Z
2020-02-01T11:15:19Z,42.805,6.029,13.2958,4.59961,2470.063,2020-2-01T13:15:53Z
2020-02-01T11:18:22Z,42.805,6.029,13.2958,4.59960,2470.063,2020-2-01T13:18:56Z
2020-02-01T11:21:25Z,42.805,6.029,13.2958,4.59961,2470.053,2020-2-01T13:21:59Z
2020-02-01T11:24:29Z,42.805,6.029,13.2961,4.59962,2470.087,2020-2-01T13:25:02Z
2020-02-01T11:27:32Z,42.805,6.029,13.2960,4.59961,2470.087,2020-2-01T13:28:06Z
2020-02-01T11:30:35Z,42.805,6.029,13.2963,4.59961,2470.077,2020-2-01T13:31:09Z
2020-02-01T11:33:38Z,42.805,6.029,13.2958,4.59961,2470.077,2020-2-01T13:34:12Z
2020-02-01T11:36:42Z,42.805,6.029,13.2961,4.59961,2470.1,2020-2-01T13:37:15Z
2020-02-01T11:39:45Z,42.805,6.029,13.2959,4.59961,2470.087,2020-2-01T13:40:19Z
2020-02-01T11:42:48Z,42.805,6.029,13.2960,4.59961,2470.087,2020-2-01T13:43:22Z
2020-02-01T11:45:51Z,42.805,6.029,13.2961,4.59961,2470.1,2020-2-01T13:46:25Z
2020-02-01T11:48:54Z,42.805,6.029,13.2957,4.59960,2470.11,2020-2-01T13:49:28Z
2020-02-01T11:51:58Z,42.805,6.029,13.2957,4.59960,2470.063,2020-2-01T13:52:31Z
2020-02-01T11:55:01Z,42.805,6.029,13.2955,4.59961,2470.087,2020-2-01T13:55:35Z
2020-02-01T11:58:04Z,42.805,6.029,13.2958,4.59961,2470.11,2020-2-01T13:58:38Z
2020-02-01T12:01:08Z,42.805,6.029,13.2959,4.59961,2470.087,2020-2-01T14:01:41Z
2020-02-01T12:04:11Z,42.805,6.029,13.2958,4.59961,2470.063,2020-2-01T14:04:45Z
2020-02-01T12:07:14Z,42.805,6.029,13.2961,4.59961,2470.1,2020-2-01T14:07:48Z
2020-02-01T12:10:17Z,42.805,6.029,13.2964,4.59961,2470.077,2020-2-01T14:10:51Z
2020-02-01T12:13:20Z,42.805,6.029,13.2958,4.59961,2470.04,2020-2-01T14:13:54Z
2020-02-01T12:16:24Z,42.805,6.029,13.2962,4.59962,2470.077,2020-2-01T14:16:57Z
2020-02-01T12:19:27Z,42.805,6.029,13.2961,4.59960,2470.087,2020-2-01T14:20:01Z
2020-02-01T12:22:30Z,42.805,6.029,13.2958,4.59960,2470.063,2020-2-01T14:23:04Z
2020-02-01T12:25:33Z,42.805,6.029,13.2958,4.59960,2470.053,2020-2-01T14:26:07Z
2020-02-01T12:28:36Z,42.805,6.029,13.2960,4.59961,2470.087,2020-2-01T14:29:10Z
2020-02-01T12:31:40Z,42.805,6.029,13.2959,4.59961,2470.087,2020-2-01T14:32:13Z
2020-02-01T12:34:43Z,42.805,6.029,13.2958,4.59962,2470.077,2020-2-01T14:35:17Z
2020-02-01T12:37:46Z,42.805,6.029,13.2960,4.59961,2470.063,2020-2-01T14:38:20Z
2020-02-01T12:40:49Z,42.805,6.029,13.2960,4.59961,2470.077,2020-2-01T14:41:23Z
2020-02-01T12:43:52Z,42.805,6.029,13.2958,4.59961,2470.1,2020-2-01T14:44:26Z
2020-02-01T12:46:56Z,42.805,6.029,13.2958,4.59961,2470.087,2020-2-01T14:47:30Z
2020-02-01T12:49:59Z,42.805,6.029,13.2959,4.59961,2470.053,2020-2-01T14:50:33Z
2020-02-01T12:53:02Z,42.805,6.029,13.2958,4.59962,2470.063,2020-2-01T14:53:36Z
2020-02-01T12:56:05Z,42.805,6.029,13.2959,4.59961,2470.087,2020-2-01T14:56:39Z
2020-02-01T12:59:09Z,42.805,6.029,13.2960,4.59960,2470.077,2020-2-01T14:59:42Z
2020-02-01T13:02:12Z,42.805,6.029,13.2963,4.59961,2470.077,2020-2-01T15:02:46Z
2020-02-01T13:05:15Z,42.805,6.029,13.2961,4.59960,2470.063,2020-2-01T15:05:49Z
2020-02-01T13:08:18Z,42.805,6.029,13.2959,4.59960,2470.063,2020-2-01T15:08:52Z
2020-02-01T13:11:21Z,42.805,6.029,13.2958,4.59961,2470.063,2020-2-01T15:11:55Z
2020-02-01T13:14:25Z,42.805,6.029,13.2958,4.59960,2470.063,2020-2-01T15:14:58Z
2020-02-01T13:17:28Z,42.805,6.029,13.2960,4.59961,2470.063,2020-2-01T15:18:02Z
2020-02-01T13:20:31Z,42.805,6.029,13.2963,4.59961,2470.063,2020-2-01T15:21:05Z
2020-02-01T13:23:34Z,42.805,6.029,13.2958,4.59962,2470.063,2020-2-01T15:24:08Z
2020-02-01T13:26:37Z,42.805,6.029,13.2958,4.59962,2470.087,2020-2-01T15:27:11Z
2020-02-01T13:29:41Z,42.805,6.029,13.2964,4.59961,2470.03,2020-2-01T15:30:14Z
2020-02-01T13:32:44Z,42.805,6.029,13.2962,4.59960,2470.053,2020-2-01T15:33:18Z
2020-02-01T13:35:47Z,42.805,6.029,13.2958,4.59961,2470.063,2020-2-01T15:36:21Z
2020-02-01T13:38:50Z,42.805,6.029,13.2961,4.59961,2470.063,2020-2-01T15:39:24Z
2020-02-01T13:41:53Z,42.805,6.029,13.2958,4.59961,2470.04,2020-2-01T15:42:27Z
2020-02-01T13:44:57Z,42.805,6.029,13.2964,4.59962,2470.077,2020-2-01T15:45:30Z
2020-02-01T13:48:00Z,42.805,6.029,13.2961,4.59961,2470.063,2020-2-01T15:48:34Z
2020-02-01T13:51:03Z,42.805,6.029,13.2963,4.59961,2470.04,2020-2-01T15:51:37Z
2020-02-01T13:54:06Z,42.805,6.029,13.2962,4.59960,2470.053,2020-2-01T15:54:40Z
2020-02-01T13:57:09Z,42.805,6.029,13.2960,4.59961,2470.063,2020-2-01T15:57:43Z
2020-02-01T14:00:13Z,42.805,6.029,13.2959,4.59961,2470.1,2020-2-01T16:00:47Z
2020-02-01T14:03:16Z,42.805,6.029,13.2959,4.59963,2470.063,2020-2-01T16:03:50Z
2020-02-01T14:06:19Z,42.805,6.029,13.2961,4.59962,2470.087,2020-2-01T16:06:53Z
2020-02-01T14:09:22Z,42.805,6.029,13.2961,4.59962,2470.077,2020-2-01T16:09:56Z
2020-02-01T14:12:26Z,42.805,6.029,13.2958,4.59962,2470.03,2020-2-01T16:13:00Z
2020-02-01T14:15:29Z,42.805,6.029,13.2958,4.59961,2470.053,2020-2-01T16:16:03Z
2020-02-01T14:18:32Z,42.805,6.029,13.2958,4.59962,2470.04,2020-2-01T16:19:06Z
2020-02-01T14:21:35Z,42.805,6.029,13.2960,4.59963,2470.04,2020-2-01T16:22:09Z
2020-02-01T14:24:39Z,42.805,6.029,13.2960,4.59961,2470.063,2020-2-01T16:25:12Z
2020-02-01T14:27:42Z,42.805,6.029,13.2961,4.59961,2470.017,2020-2-01T16:28:16Z
2020-02-01T14:30:45Z,42.805,6.029,13.2959,4.59962,2470.053,2020-2-01T16:31:19Z
2020-02-01T14:33:49Z,42.805,6.029,13.2958,4.59963,2470.007,2020-2-01T16:34:22Z
2020-02-01T14:36:52Z,42.805,6.029,13.2959,4.59961,2470.04,2020-2-01T16:37:26Z
2020-02-01T14:39:55Z,42.805,6.029,13.2957,4.59961,2470.053,2020-2-01T16:40:29Z
2020-02-01T14:42:58Z,42.805,6.029,13.2960,4.59961,2470.017,2020-2-01T16:43:32Z
2020-02-01T14:46:02Z,42.805,6.029,13.2961,4.59961,2470.03,2020-2-01T16:46:35Z
2020-02-01T14:49:05Z,42.805,6.029,13.2961,4.59961,2470.04,2020-2-01T16:49:39Z
2020-02-01T14:52:08Z,42.805,6.029,13.2965,4.59962,2470.04,2020-2-01T16:52:42Z
2020-02-01T14:55:11Z,42.805,6.029,13.2965,4.59961,2470.017,2020-2-01T16:55:45Z
2020-02-01T14:58:15Z,42.805,6.029,13.2958,4.59961,2470.017,2020-2-01T16:58:48Z
2020-02-01T15:01:18Z,42.805,6.029,13.2961,4.59961,2470.077,2020-2-01T17:01:51Z
2020-02-01T15:04:21Z,42.805,6.029,13.2964,4.59961,2470.053,2020-2-01T17:04:55Z
2020-02-01T15:07:24Z,42.805,6.029,13.2961,4.59962,2469.993,2020-2-01T17:07:58Z
2020-02-01T15:10:27Z,42.805,6.029,13.2958,4.59962,2470.017,2020-2-01T17:11:01Z
2020-02-01T15:13:31Z,42.805,6.029,13.2961,4.59961,2469.993,2020-2-01T17:14:04Z
2020-02-01T15:16:34Z,42.805,6.029,13.2959,4.59963,2470.017,2020-2-01T17:17:08Z
2020-02-01T15:19:37Z,42.805,6.029,13.2963,4.59961,2470.007,2020-2-01T17:20:11Z
2020-02-01T15:22:40Z,42.805,6.029,13.2960,4.59961,2469.993,2020-2-01T17:23:14Z
2020-02-01T15:25:43Z,42.805,6.029,13.2960,4.59961,2470.017,2020-2-01T17:26:17Z
2020-02-01T15:28:47Z,42.805,6.029,13.2960,4.59960,2470.017,2020-2-01T17:29:20Z
2020-02-01T15:31:50Z,42.805,6.029,13.2964,4.59962,2470.017,2020-2-01T17:32:24Z
2020-02-01T15:34:53Z,42.805,6.029,13.2960,4.59961,2470.007,2020-2-01T17:35:27Z
2020-02-01T15:37:56Z,42.805,6.029,13.2963,4.59963,2470.007,2020-2-01T17:38:30Z